Location: Dilsberg
(49.3983°N, 8.8354°E)
Time: 16:52:37
(UTC+00:00)

Cosmos 2366 rocket - Pass Details

Date: 19 May 2025
Orbit: 954 x 996 km, 82.9° (Epoch: 17 June)

Event Time Altitude Azimuth Distance (km) Brightness Sun altitude
Rises 21:07:18 0° 349° (NNW) 3,728 8.4 -14.5°
Reaches altitude 10° 21:09:51 10° 347° (NNW) 2,774 7.6 -14.8°
Maximum altitude 21:16:12 73° 265° (W) 1,041 4.2 -15.3°
Enters shadow 21:21:11 17° 183° (S) 2,273 5.4 -15.7°
